Location: Newark
(44.2764°N, 5.2753°E)
Time: 02:55:31
(UTC+00:00)

X-37B - Pass Details

Date: 13 March 2021
Orbit: 380 x 394 km, 45.0° (Epoch: 07 April)

Event Time Altitude Azimuth Distance (km) Brightness Sun altitude
Rises 18:53:49 0° 239° (WSW) 2,263 5.3 -13.5°
Reaches altitude 10° 18:55:55 10° 233° (SW) 1,413 4.0 -13.9°
Maximum altitude 18:58:59 47° 158° (SSE) 523 1.0 -14.4°
Enters shadow 19:00:00 33° 107° (ESE) 678 1.2 -14.6°
